Total_Precipitation_Accumulation
2.26 2.13 3.12 4.65 4.96 4.18 3.56 3.00 2.26 1.83 1.28 1.06 0.96 1.08 1.48 2.03 2.47 2.98 3.33 3.19 2.19 1.82 1.97 2.80 3.88 3.80 3.50 3.58 3.53 3.44 3.43 3.34 3.28 3.18 2.98 2.90 2.80 2.87 3.23 3.23 3.16 2.98 2.96 3.11 3.20 3.41 3.63 3.66 3.67
1.85 2.55 3.77 5.20 4.71 3.76 3.38 2.86 2.16 1.52 1.00 0.78 0.70 0.77 0.91 0.95 1.07 1.89 3.17 3.14 1.81 1.47 1.69 2.29 3.32 3.24 3.18 3.23 3.01 2.91 2.93 2.87 2.93 2.97 2.78 2.73 2.75 2.91 3.25 3.22 3.03 2.82 2.70 2.83 3.10 3.42 3.54 3.60 3.68
2.07 3.31 4.41 4.64 3.70 3.40 3.30 2.56 1.74 1.03 0.69 0.61 0.61 0.61 0.74 1.12 1.31 2.05 2.79 2.24 1.43 1.26 1.59 2.38 3.17 3.01 3.00 2.95 2.69 2.72 2.64 2.62 2.71 2.81 2.71 2.81 2.79 2.91 3.18 3.28 3.23 3.07 3.03 3.04 3.24 3.38 3.44 3.61 3.66
2.39 3.65 3.95 3.63 3.15 2.60 2.21 1.82 1.35 1.14 0.74 0.46 0.44 0.60 0.70 1.19 1.57 1.87 1.90 1.53 1.25 1.29 1.47 2.08 2.80 2.72 2.66 2.57 2.59 2.61 2.53 2.52 2.52 2.61 2.65 2.78 2.88 2.87 3.10 3.30 3.13 2.97 3.19 3.43 3.62 3.58 3.56 3.66 3.72
2.97 3.80 3.57 3.01 2.60 2.09 1.56 1.23 1.05 1.08 0.88 0.52 0.40 0.65 1.01 1.50 1.67 1.48 1.34 1.10 1.06 1.15 1.21 1.64 2.42 2.44 2.37 2.39 2.49 2.58 2.47 2.51 2.42 2.48 2.72 2.85 2.87 2.92 3.08 3.24 3.07 2.95 3.09 3.55 3.77 3.80 3.74 3.61 3.55
3.26 3.36 3.32 2.84 2.54 2.01 1.55 1.14 0.91 0.86 0.70 0.50 0.43 0.67 1.17 1.56 1.77 1.53 1.28 1.28 1.23 1.25 1.18 1.39 2.12 2.30 2.22 2.36 2.36 2.41 2.50 2.49 2.40 2.45 2.56 2.71 2.83 2.82 2.94 3.01 3.03 2.94 2.97 3.20 3.35 3.37 3.55 3.42 3.39
3.13 3.03 2.79 2.30 2.37 2.48 1.80 1.12 0.97 0.94 0.78 0.56 0.41 0.72 1.18 1.52 1.47 1.36 1.40 1.47 1.47 1.51 1.45 1.53 1.76 1.96 2.16 2.31 2.32 2.43 2.56 2.54 2.41 2.34 2.38 2.42 2.54 2.53 2.57 2.68 2.86 2.89 3.02 3.08 3.11 3.30 3.46 3.41 3.36
2.42 2.50 2.26 2.19 2.40 2.61 1.68 1.10 0.90 0.85 0.78 0.40 0.34 0.70 1.13 1.14 1.10 1.24 1.35 1.37 1.37 1.44 1.43 1.47 1.62 1.71 1.77 1.93 2.31 2.60 2.96 2.84 2.42 2.16 2.04 2.20 2.27 2.25 2.39 2.50 2.81 3.09 3.29 3.52 3.51 3.61 3.43 3.31 3.12
2.17 2.59 2.68 2.68 2.64 2.28 1.49 1.27 0.98 0.66 0.60 0.45 0.40 0.55 0.70 0.70 0.86 0.99 1.17 1.18 1.16 1.12 1.17 1.28 1.39 1.45 1.54 1.55 1.80 2.36 2.84 2.84 2.36 1.98 1.94 1.89 1.73 1.72 1.90 2.17 2.69 3.07 3.35 3.66 3.71 3.58 3.31 2.98 2.77
2.11 2.52 2.42 2.02 1.69 1.41 1.23 1.11 0.94 0.83 0.85 0.70 0.60 0.58 0.60 0.65 0.87 0.96 1.01 1.11 1.04 0.97 0.93 0.95 0.96 1.07 1.16 1.16 1.51 1.85 1.89 2.11 1.87 1.78 1.71 1.69 1.74 1.76 1.49 1.69 2.27 2.69 2.99 3.26 3.49 3.40 2.95 2.29 2.07
1.78 1.90 1.67 1.45 1.11 0.91 0.91 0.82 0.72 0.76 0.88 0.77 0.75 0.63 0.67 0.71 0.81 0.86 0.83 0.83 0.89 0.87 0.86 0.79 0.77 0.84 0.99 1.15 1.32 1.54 1.72 1.88 1.86 1.78 1.80 1.89 1.85 1.57 1.42 1.53 1.71 2.01 2.32 2.46 2.70 2.69 2.21 1.83 1.74
1.70 1.40 1.23 1.18 0.83 0.82 0.85 0.70 0.63 0.63 0.60 0.48 0.58 0.56 0.60 0.66 0.69 0.69 0.71 0.74 0.72 0.71 0.81 0.77 0.62 0.65 0.74 0.83 1.01 1.17 1.39 1.61 1.68 1.52 1.48 1.67 1.74 1.58 1.46 1.64 1.70 1.90 2.21 2.48 2.59 2.37 2.02 1.65 1.50
1.64 1.50 1.21 1.06 0.83 0.83 0.77 0.70 0.60 0.53 0.47 0.41 0.47 0.60 0.67 0.73 0.74 0.70 0.68 0.72 0.69 0.72 0.78 0.82 0.72 0.67 0.71 0.77 0.83 0.86 1.16 1.35 1.53 1.58 1.39 1.53 1.62 1.58 1.48 1.44 1.62 1.71 2.03 2.28 2.43 2.31 2.10 1.82 1.57
1.49 1.36 1.11 1.01 0.89 0.81 0.76 0.68 0.64 0.55 0.48 0.45 0.51 0.65 0.71 0.79 0.81 0.75 0.71 0.69 0.62 0.69 0.78 0.79 0.79 0.77 0.77 0.78 0.78 0.78 0.86 0.95 1.06 1.03 1.03 1.20 1.35 1.38 1.41 1.33 1.42 1.60 1.95 2.39 2.52 2.26 2.12 1.91 1.79
1.22 1.33 1.39 1.15 0.94 0.76 0.78 0.97 0.72 0.60 0.59 0.58 0.60 0.64 0.69 0.69 0.73 0.75 0.71 0.69 0.68 0.70 0.75 0.80 0.83 0.89 0.89 0.88 0.93 0.92 0.87 0.89 0.89 0.86 0.87 0.95 1.08 1.17 1.28 1.36 1.38 1.51 1.86 2.34 2.63 2.49 2.27 1.99 1.93
1.34 1.53 1.86 1.46 1.17 0.94 1.05 1.32 0.72 0.62 0.68 0.65 0.63 0.60 0.62 0.59 0.64 0.68 0.70 0.73 0.75 0.73 0.67 0.71 0.74 0.83 0.85 0.88 0.93 1.03 1.03 1.02 1.01 1.02 0.98 0.94 1.08 1.19 1.29 1.41 1.38 1.45 1.77 2.19 2.56 2.69 2.69 2.46 2.29
1.52 1.51 1.50 1.43 1.20 1.00 0.99 0.99 0.64 0.60 0.68 0.71 0.66 0.62 0.66 0.50 0.51 0.56 0.58 0.65 0.73 0.71 0.64 0.62 0.67 0.69 0.72 0.72 0.77 0.91 0.99 1.06 1.14 1.12 1.14 1.17 1.22 1.23 1.35 1.58 1.61 1.63 1.87 2.08 2.21 2.43 2.62 2.68 2.50
1.18 1.07 1.09 1.19 0.99 0.96 0.93 0.74 0.57 0.59 0.65 0.69 0.71 0.65 0.62 0.46 0.40 0.40 0.47 0.56 0.67 0.68 0.67 0.65 0.67 0.66 0.62 0.60 0.67 0.79 0.89 0.96 1.16 1.21 1.26 1.55 1.67 1.46 1.43 1.61 1.66 1.73 2.03 2.14 2.27 2.57 2.67 2.74 2.74
0.84 0.78 0.88 0.86 0.71 0.87 0.85 0.67 0.57 0.52 0.50 0.54 0.60 0.62 0.59 0.48 0.38 0.33 0.33 0.41 0.50 0.49 0.49 0.58 0.61 0.70 0.69 0.58 0.55 0.69 0.83 0.97 1.13 1.32 1.33 1.54 1.65 1.55 1.61 1.68 1.73 1.79 1.94 2.02 2.18 2.63 2.78 2.78 2.67
0.80 0.87 0.92 0.80 0.68 0.78 0.84 0.69 0.57 0.48 0.42 0.45 0.50 0.54 0.54 0.45 0.40 0.37 0.31 0.34 0.40 0.45 0.42 0.46 0.53 0.64 0.75 0.75 0.74 0.84 1.03 1.13 1.25 1.44 1.46 1.52 1.52 1.50 1.45 1.70 1.87 1.84 2.01 2.08 2.24 2.62 2.95 2.81 2.68
0.75 0.84 0.84 0.84 0.84 0.77 0.83 0.92 0.71 0.53 0.45 0.44 0.44 0.47 0.48 0.41 0.38 0.38 0.34 0.31 0.35 0.38 0.36 0.42 0.55 0.69 0.87 1.05 1.28 1.51 1.79 1.93 1.81 1.70 1.78 1.84 1.87 1.78 1.72 1.83 2.02 1.99 2.07 2.18 2.23 2.36 2.94 3.19 2.98
0.85 0.59 0.62 0.75 1.01 1.03 0.83 1.10 0.76 0.53 0.52 0.52 0.47 0.42 0.41 0.36 0.34 0.32 0.32 0.32 0.34 0.42 0.50 0.61 0.79 0.95 1.12 1.32 1.54 1.81 2.10 2.32 2.29 2.31 2.36 2.28 2.18 2.06 1.91 1.95 2.06 2.11 2.19 2.17 1.99 2.17 2.73 3.31 3.42
0.67 0.58 0.61 0.76 1.00 0.97 0.82 0.84 0.69 0.54 0.62 0.64 0.58 0.50 0.48 0.46 0.42 0.42 0.44 0.44 0.48 0.61 0.75 0.88 1.18 1.36 1.47 1.54 1.62 1.86 1.95 2.06 2.16 2.28 2.34 2.33 2.23 2.10 1.95 1.89 2.05 2.16 2.22 2.19 2.23 2.37 2.69 3.06 3.43
0.55 0.68 0.78 0.91 1.05 1.04 0.72 0.69 0.73 0.54 0.60 0.70 0.66 0.58 0.52 0.51 0.48 0.50 0.59 0.61 0.68 0.93 1.19 1.33 1.48 1.71 1.65 1.57 1.56 1.66 1.82 1.91 2.03 2.17 2.22 2.15 2.02 1.98 1.92 1.92 1.95 1.95 2.03 2.12 2.27 2.51 2.66 2.87 3.11
0.57 0.92 1.19 1.24 1.16 0.84 0.45 0.53 0.62 0.44 0.41 0.50 0.56 0.56 0.52 0.45 0.46 0.51 0.62 0.76 0.98 1.22 1.43 1.57 1.61 1.64 1.56 1.44 1.52 1.55 1.70 1.86 1.90 1.93 1.91 1.89 1.83 1.78 1.80 1.84 1.81 1.74 1.76 1.90 2.07 2.28 2.32 2.45 2.68
0.51 0.67 1.03 1.16 0.99 0.69 0.47 0.62 0.61 0.44 0.34 0.30 0.32 0.37 0.46 0.51 0.58 0.61 0.68 0.88 1.21 1.49 1.71 1.98 1.98 1.78 1.62 1.53 1.59 1.66 1.76 1.80 1.75 1.64 1.65 1.66 1.61 1.56 1.51 1.53 1.58 1.58 1.59 1.66 1.84 1.99 1.96 2.02 2.23
0.48 0.49 0.53 0.75 0.65 0.63 0.53 0.56 0.49 0.33 0.27 0.27 0.29 0.34 0.47 0.56 0.66 0.77 0.94 1.07 1.36 1.59 1.88 2.19 2.29 2.09 1.94 1.85 1.79 1.83 1.76 1.64 1.52 1.41 1.39 1.42 1.43 1.33 1.27 1.30 1.42 1.52 1.51 1.51 1.68 1.81 1.75 1.81 1.94
0.39 0.44 0.54 0.79 0.87 0.83 0.61 0.60 0.51 0.36 0.27 0.28 0.37 0.43 0.52 0.61 0.65 0.83 1.16 1.47 1.78 1.74 1.86 2.07 2.05 2.01 2.00 2.01 2.02 1.95 1.78 1.61 1.54 1.46 1.44 1.39 1.40 1.30 1.26 1.26 1.27 1.30 1.34 1.39 1.58 1.75 1.80 1.79 1.83
0.38 0.44 0.53 0.68 0.70 0.89 0.94 0.78 0.50 0.43 0.41 0.45 0.52 0.54 0.59 0.66 0.72 0.92 1.14 1.36 1.63 1.77 1.78 1.80 1.80 1.88 1.91 1.82 1.77 1.70 1.47 1.32 1.29 1.29 1.27 1.22 1.20 1.11 1.07 1.03 1.07 1.19 1.19 1.20 1.39 1.49 1.52 1.67 1.73
0.42 0.46 0.53 0.84 0.83 0.75 1.00 1.00 0.59 0.55 0.57 0.64 0.71 0.75 0.79 0.80 0.87 1.03 1.15 1.34 1.44 1.48 1.59 1.69 1.59 1.58 1.58 1.49 1.39 1.27 1.20 1.12 1.11 1.11 1.05 0.98 1.01 0.97 1.01 1.02 0.96 1.10 1.23 1.24 1.29 1.30 1.29 1.45 1.55